Weather in Novokuznetsk

Russia / Kemerovo Oblast     53°45′27″N   87°08′09″E
temp.,
°C
wind,
m/s
gust,
m/s
humid.,
%
clouds,
%
prec.,
mm/h
press.,
hPa
HPBL,
m
18 april, sun
sun1801:00−1e127298 0.0 1023113
04:00−1se1274100 0.0 1021129
07:00−1ssw2578100 0.0 1021250
10:00+2sw3670100 0.0 1020762
13:00+4wsw4758100 0.1 10181606
16:00+5sw4856100 0.1 10171643
19:00+4s3772100 0.1 1015550
22:00+4s51570100 0.0 1011729
19 april, mon
mon1901:00+6ssw61768100 0.1 1005798
04:00+6sw81884100 1.9 10021289
07:00+4wsw81890100 5.3 10041779
10:00−2wnw71157100 0.3 10131521
13:00−2nw5748100 0.3 10191750
16:00−1wnw4563100 0.2 10201290
19:00−2wnw356699 1.2 10211147
22:00−3n456690 0.2 1022868
20 april, tue
tue2001:00−5nne4465100 0.3 1023857
04:00−6ne2264100 0.1 1024794
07:00−6ne226099 0.1 1024810
10:00−4n2249100 0.1 10251403
13:00−2nnw2238100 0.1 10241724
16:000nw2333100 0.0 10232038
19:00−1nnw33346 0.0 10241680
22:00−3nne24511 0.0 1025285
21 april, wed
wed2101:00−4e11555 0.0 1025219
04:00−4se12555 0.0 1025228
07:00−3se2353100 0.0 1024291
10:00−1s2338100 0.0 10241175
13:00+1ese1231100 0.0 10231667
16:00+2nne2229100 0.0 10221824
19:00+2nne2236100 0.0 10221078
22:00−1nne254698 0.0 1024225
22 april, thu
thu2201:00−2n245856 0.0 1025175
04:00−2ne126697 0.0 1026136
07:00−1nne226895 0.0 1028231
10:00+1nne235498 0.0 1030819
13:00+4ne3532100 0.0 10302132
16:00+5ne5634100 0.0 10312181
19:00+4ne464267 0.0 10341409
22:000nne39612 0.0 1037545